Location: Coors Field
(39.7564°N, 104.9943°W)
Time: 13:51:04
(UTC-06:00)

ISS - Visible Passes

Search period start: 26 May 2018 00:00
Search period end: 05 June 2018 00:00
Orbit: 402 x 407 km, 51.6° (Epoch: 26 May)

Date Brightness Start Highest point End Pass type
(mag) Time Alt. Az. Time Alt. Az. Time Alt. Az.
26 May -0.7 00:59:14 10° NNW 01:00:18 15° N 01:00:18 15° N visible
26 May -1.2 20:51:29 10° W 20:54:09 23° NNW 20:56:50 10° NNE visible
26 May -0.4 22:30:44 10° NNW 22:31:33 11° N 22:32:23 10° N visible
27 May -0.8 00:07:18 10° NNW 00:09:10 14° NNE 00:09:31 14° NNE visible
27 May -0.6 21:37:36 10° NW 21:39:00 12° N 21:40:23 10° NNE visible
27 May -0.7 23:15:22 10° NNW 23:16:37 12° N 23:17:53 10° NNE visible
28 May -0.7 00:50:55 10° NW 00:51:25 13° NNW 00:51:25 13° NNW visible
28 May -0.5 22:23:18 10° N 22:24:02 11° N 22:24:46 10° NNE visible
28 May -1.1 23:58:55 10° NNW 00:00:46 20° N 00:00:46 20° N visible
29 May -0.6 21:30:44 10° NNW 21:31:25 10° N 21:32:06 10° N visible
29 May -1.1 23:06:55 10° NNW 23:09:00 16° NNE 23:10:08 13° NE visible
30 May -0.5 00:42:42 10° NW 00:42:45 10° NW 00:42:45 10° NW visible
30 May -0.9 22:14:57 10° NNW 22:16:25 12° NNE 22:17:54 10° NE visible
30 May -1.4 23:50:33 10° NW 23:52:09 23° NNW 23:52:09 23° NNW visible
31 May -0.8 21:22:55 10° N 21:23:49 11° N 21:24:42 10° NNE visible
31 May -1.9 22:58:28 10° NNW 23:01:12 24° NNE 23:01:34 23° NE visible
01 Jun -1.3 22:06:26 10° NNW 22:08:41 17° NNE 22:10:57 10° ENE visible
01 Jun -1.5 23:42:18 10° NW 23:43:39 23° NW 23:43:39 23° NW visible
02 Jun -1.1 21:14:25 10° NNW 21:16:07 13° NNE 21:17:48 10° NE visible
02 Jun -3.0 22:50:04 10° NW 22:53:06 45° NNE 22:53:06 45° NNE visible
03 Jun -2.2 21:57:55 10° NW 22:00:48 28° NNE 22:02:36 17° ENE visible
03 Jun -1.3 23:34:18 10° WNW 23:35:14 17° WNW 23:35:14 17° WNW visible
04 Jun -1.6 21:05:50 10° NNW 21:08:16 19° NNE 21:10:43 10° ENE visible
04 Jun -3.7 22:41:48 10° NW 22:44:45 66° W 22:44:45 66° W visible
